Time,TemperatureF,DewpointF,PressureIn,WindDirection,WindDirectionDegrees,WindSpeedMPH,WindSpeedGustMPH,Humidity,HourlyPrecipIn,Conditions,Clouds,dailyrainin,SolarRadiationWatts/m^2,SoftwareType,DateUTC
2013-03-14 00:12:00,31.0,27.0,-100.00,WNW,297,2.0,3.0,84,0.00,,,0.01,0.000000,,2013-03-14 04:12:00,
2013-03-14 00:22:00,31.0,27.0,-100.00,WNW,297,2.0,3.0,84,0.00,,,0.01,0.000000,,2013-03-14 04:22:00,
2013-03-14 00:53:00,30.0,26.0,-100.00,NW,318,1.0,4.0,85,0.00,,,0.00,0.000000,,2013-03-14 04:53:00,
2013-03-14 01:02:00,30.0,26.0,-100.00,NW,318,1.0,4.0,85,0.00,,,0.00,0.000000,,2013-03-14 05:02:00,
2013-03-14 01:13:00,30.0,26.0,-100.00,NW,318,1.0,4.0,85,0.00,,,0.00,0.000000,,2013-03-14 05:13:00,
2013-03-14 01:22:00,30.0,26.0,-100.00,NW,318,1.0,4.0,85,0.00,,,0.00,0.000000,,2013-03-14 05:22:00,
2013-03-14 01:53:00,30.0,25.0,-100.00,WNW,302,0.0,5.0,81,0.00,,,0.00,0.000000,,2013-03-14 05:53:00,
2013-03-14 02:02:00,30.0,25.0,-100.00,WNW,302,0.0,5.0,81,0.00,,,0.00,0.000000,,2013-03-14 06:02:00,
2013-03-14 02:12:00,30.0,25.0,-100.00,WNW,302,0.0,5.0,81,0.00,,,0.00,0.000000,,2013-03-14 06:12:00,
2013-03-14 02:22:00,30.0,25.0,-100.00,WNW,302,0.0,5.0,81,0.00,,,0.00,0.000000,,2013-03-14 06:22:00,
2013-03-14 02:52:00,30.0,25.0,-100.00,WNW,285,2.0,4.0,83,0.00,,,0.00,0.000000,,2013-03-14 06:52:00,
2013-03-14 03:02:00,30.0,25.0,-100.00,WNW,285,2.0,4.0,83,0.00,,,0.00,0.000000,,2013-03-14 07:02:00,
2013-03-14 03:12:00,30.0,25.0,-100.00,WNW,285,2.0,4.0,83,0.00,,,0.00,0.000000,,2013-03-14 07:12:00,
2013-03-14 03:22:00,30.0,25.0,-100.00,WNW,285,2.0,4.0,83,0.00,,,0.00,0.000000,,2013-03-14 07:22:00,
2013-03-14 03:52:00,30.0,25.0,-100.00,WNW,284,4.0,8.0,80,0.00,,,0.00,0.000000,,2013-03-14 07:52:00,
2013-03-14 04:02:00,30.0,25.0,-100.00,WNW,284,4.0,8.0,80,0.00,,,0.00,0.000000,,2013-03-14 08:02:00,
2013-03-14 04:12:00,30.0,25.0,-100.00,WNW,284,4.0,8.0,80,0.00,,,0.00,0.000000,,2013-03-14 08:12:00,
2013-03-14 04:22:00,30.0,25.0,-100.00,WNW,284,4.0,8.0,80,0.00,,,0.00,0.000000,,2013-03-14 08:22:00,
2013-03-14 04:52:00,29.0,25.0,-100.00,WNW,296,2.0,5.0,83,0.00,,,0.00,0.000000,,2013-03-14 08:52:00,
2013-03-14 05:02:00,29.0,25.0,-100.00,WNW,296,2.0,5.0,83,0.00,,,0.00,0.000000,,2013-03-14 09:02:00,
2013-03-14 05:12:00,29.0,25.0,-100.00,WNW,296,2.0,5.0,83,0.00,,,0.00,0.000000,,2013-03-14 09:12:00,
2013-03-14 05:22:00,29.0,25.0,-100.00,WNW,296,2.0,5.0,83,0.00,,,0.00,0.000000,,2013-03-14 09:22:00,
2013-03-14 05:52:00,29.0,24.0,-100.00,WNW,285,3.0,7.0,81,0.00,,,0.00,0.000000,,2013-03-14 09:52:00,
2013-03-14 06:02:00,29.0,24.0,-100.00,WNW,285,3.0,7.0,81,0.00,,,0.00,0.000000,,2013-03-14 10:02:00,
2013-03-14 06:12:00,29.0,24.0,-100.00,WNW,285,3.0,7.0,81,0.00,,,0.00,0.000000,,2013-03-14 10:12:00,
2013-03-14 06:22:00,29.0,24.0,-100.00,WNW,285,3.0,7.0,81,0.00,,,0.00,0.000000,,2013-03-14 10:22:00,
2013-03-14 06:52:00,30.0,23.0,-100.00,WNW,302,3.0,10.0,74,0.00,,,0.00,0.000000,,2013-03-14 10:52:00,
2013-03-14 07:02:00,30.0,23.0,-100.00,WNW,302,3.0,10.0,74,0.00,,,0.00,0.000000,,2013-03-14 11:02:00,
2013-03-14 07:12:00,30.0,23.0,-100.00,WNW,302,3.0,10.0,74,0.00,,,0.00,0.000000,,2013-03-14 11:12:00,
2013-03-14 07:22:00,30.0,23.0,-100.00,WNW,302,3.0,10.0,74,0.00,,,0.00,0.000000,,2013-03-14 11:22:00,
2013-03-14 07:53:00,31.0,22.0,-100.00,WNW,288,4.0,8.0,69,0.00,,,0.00,4.000000,,2013-03-14 11:53:00,
2013-03-14 08:02:00,31.0,22.0,-100.00,WNW,288,4.0,8.0,69,0.00,,,0.00,4.000000,,2013-03-14 12:02:00,
2013-03-14 08:12:00,31.0,22.0,-100.00,WNW,288,4.0,8.0,69,0.00,,,0.00,4.000000,,2013-03-14 12:12:00,
2013-03-14 08:22:00,31.0,22.0,-100.00,WNW,288,4.0,8.0,69,0.00,,,0.00,4.000000,,2013-03-14 12:22:00,
2013-03-14 08:52:00,33.0,21.0,-100.00,West,281,6.0,12.0,62,0.00,,,0.00,40.000000,,2013-03-14 12:52:00,
2013-03-14 09:03:00,33.0,21.0,-100.00,West,281,6.0,12.0,62,0.00,,,0.00,40.000000,,2013-03-14 13:03:00,
2013-03-14 09:13:00,33.0,21.0,-100.00,West,281,6.0,12.0,62,0.00,,,0.00,40.000000,,2013-03-14 13:13:00,
2013-03-14 09:22:00,33.0,21.0,-100.00,West,281,6.0,12.0,62,0.00,,,0.00,40.000000,,2013-03-14 13:22:00,
2013-03-14 09:52:00,34.0,22.0,-100.00,West,270,7.0,13.0,61,0.00,,,0.00,161.000000,,2013-03-14 13:52:00,
2013-03-14 10:02:00,34.0,22.0,-100.00,West,270,7.0,13.0,61,0.00,,,0.00,161.000000,,2013-03-14 14:02:00,
2013-03-14 10:12:00,34.0,22.0,-100.00,West,270,7.0,13.0,61,0.00,,,0.00,161.000000,,2013-03-14 14:12:00,
2013-03-14 10:22:00,34.0,22.0,-100.00,West,270,7.0,13.0,61,0.00,,,0.00,161.000000,,2013-03-14 14:22:00,
2013-03-14 10:53:00,36.0,18.0,-100.00,West,279,6.0,15.0,48,0.00,,,0.00,251.000000,,2013-03-14 14:53:00,
2013-03-14 11:02:00,36.0,18.0,-100.00,West,279,6.0,15.0,48,0.00,,,0.00,251.000000,,2013-03-14 15:02:00,
2013-03-14 11:12:00,36.0,18.0,-100.00,West,279,6.0,15.0,48,0.00,,,0.00,251.000000,,2013-03-14 15:12:00,
2013-03-14 11:22:00,36.0,18.0,-100.00,West,279,6.0,15.0,48,0.00,,,0.00,251.000000,,2013-03-14 15:22:00,
2013-03-14 11:52:00,37.0,17.0,-100.00,NW,309,5.0,14.0,43,0.00,,,0.00,407.000000,,2013-03-14 15:52:00,
2013-03-14 12:03:00,37.0,17.0,-100.00,NW,309,5.0,14.0,43,0.00,,,0.00,407.000000,,2013-03-14 16:03:00,
2013-03-14 12:13:00,37.0,17.0,-100.00,NW,309,5.0,14.0,43,0.00,,,0.00,407.000000,,2013-03-14 16:13:00,
2013-03-14 12:23:00,37.0,17.0,-100.00,NW,309,5.0,14.0,43,0.00,,,0.00,407.000000,,2013-03-14 16:23:00,
2013-03-14 12:52:00,38.0,16.0,-100.00,West,266,7.0,18.0,40,0.00,,,0.00,384.000000,,2013-03-14 16:52:00,
2013-03-14 13:02:00,38.0,16.0,-100.00,West,266,7.0,18.0,40,0.00,,,0.00,384.000000,,2013-03-14 17:02:00,
2013-03-14 13:13:00,38.0,16.0,-100.00,West,266,7.0,18.0,40,0.00,,,0.00,384.000000,,2013-03-14 17:13:00,
2013-03-14 13:23:00,38.0,16.0,-100.00,West,266,7.0,18.0,40,0.00,,,0.00,384.000000,,2013-03-14 17:23:00,
2013-03-14 13:53:00,39.0,16.0,-100.00,WNW,292,6.0,16.0,38,0.00,,,0.00,378.000000,,2013-03-14 17:53:00,
2013-03-14 14:03:00,39.0,16.0,-100.00,WNW,292,6.0,16.0,38,0.00,,,0.00,378.000000,,2013-03-14 18:03:00,
2013-03-14 14:13:00,39.0,16.0,-100.00,WNW,292,6.0,16.0,38,0.00,,,0.00,378.000000,,2013-03-14 18:13:00,
2013-03-14 14:23:00,39.0,16.0,-100.00,WNW,292,6.0,16.0,38,0.00,,,0.00,378.000000,,2013-03-14 18:23:00,
2013-03-14 14:53:00,38.0,15.0,-100.00,WNW,289,6.0,16.0,39,0.00,,,0.00,266.000000,,2013-03-14 18:53:00,
2013-03-14 15:03:00,38.0,15.0,-100.00,WNW,289,6.0,16.0,39,0.00,,,0.00,266.000000,,2013-03-14 19:03:00,
2013-03-14 15:12:00,38.0,15.0,-100.00,WNW,289,6.0,16.0,39,0.00,,,0.00,266.000000,,2013-03-14 19:12:00,
2013-03-14 15:23:00,38.0,15.0,-100.00,WNW,289,6.0,16.0,39,0.00,,,0.00,266.000000,,2013-03-14 19:23:00,
2013-03-14 16:52:00,36.0,13.0,-100.00,WNW,292,6.0,15.0,39,-99.99,,,0.00,198.000000,,2013-03-14 20:52:00,
2013-03-14 17:03:00,36.0,13.0,-100.00,WNW,292,6.0,15.0,39,-99.99,,,0.00,198.000000,,2013-03-14 21:03:00,
2013-03-14 17:13:00,36.0,13.0,-100.00,WNW,292,6.0,15.0,39,-99.99,,,0.00,198.000000,,2013-03-14 21:13:00,
2013-03-14 17:23:00,36.0,13.0,-100.00,WNW,292,6.0,15.0,39,-99.99,,,0.00,198.000000,,2013-03-14 21:23:00,
2013-03-14 17:53:00,35.0,14.0,-100.00,NW,326,7.0,19.0,41,0.00,,,0.00,77.000000,,2013-03-14 21:53:00,
2013-03-14 18:04:00,35.0,14.0,-100.00,NW,326,7.0,19.0,41,0.00,,,0.00,77.000000,,2013-03-14 22:04:00,
2013-03-14 18:13:00,35.0,14.0,-100.00,NW,326,7.0,19.0,41,0.00,,,0.00,77.000000,,2013-03-14 22:13:00,
2013-03-14 18:23:00,35.0,14.0,-100.00,NW,326,7.0,19.0,41,0.00,,,0.00,77.000000,,2013-03-14 22:23:00,
2013-03-14 18:53:00,33.0,15.0,-100.00,WNW,298,6.0,16.0,47,0.00,,,0.00,53.000000,,2013-03-14 22:53:00,
2013-03-14 19:03:00,33.0,15.0,-100.00,WNW,298,6.0,16.0,47,0.00,,,0.00,53.000000,,2013-03-14 23:03:00,
2013-03-14 19:12:00,33.0,15.0,-100.00,WNW,298,6.0,16.0,47,0.00,,,0.00,53.000000,,2013-03-14 23:12:00,
2013-03-14 19:23:00,33.0,15.0,-100.00,WNW,298,6.0,16.0,47,0.00,,,0.00,53.000000,,2013-03-14 23:23:00,
2013-03-14 19:54:00,30.0,15.0,-100.00,NW,306,7.0,20.0,54,0.00,,,0.00,5.000000,,2013-03-14 23:54:00,
2013-03-14 20:02:00,30.0,15.0,-100.00,NW,306,7.0,20.0,54,0.00,,,0.00,5.000000,,2013-03-15 00:02:00,
2013-03-14 20:12:00,30.0,15.0,-100.00,NW,306,7.0,20.0,54,0.00,,,0.00,5.000000,,2013-03-15 00:12:00,
2013-03-14 20:23:00,30.0,15.0,-100.00,NW,306,7.0,20.0,54,0.00,,,0.00,5.000000,,2013-03-15 00:23:00,
2013-03-14 20:52:00,27.0,7.0,-100.00,NW,313,8.0,26.0,42,0.00,,,0.00,0.000000,,2013-03-15 00:52:00,
2013-03-14 21:02:00,27.0,7.0,-100.00,NW,313,8.0,26.0,42,0.00,,,0.00,0.000000,,2013-03-15 01:02:00,
2013-03-14 21:12:00,27.0,7.0,-100.00,NW,313,8.0,26.0,42,0.00,,,0.00,0.000000,,2013-03-15 01:12:00,
2013-03-14 21:22:00,27.0,7.0,-100.00,NW,313,8.0,26.0,42,0.00,,,0.00,0.000000,,2013-03-15 01:22:00,
2013-03-14 21:52:00,25.0,5.0,-100.00,NW,308,9.0,24.0,41,0.00,,,0.00,0.000000,,2013-03-15 01:52:00,
2013-03-14 22:03:00,25.0,5.0,-100.00,NW,308,9.0,24.0,41,0.00,,,0.00,0.000000,,2013-03-15 02:03:00,
2013-03-14 22:12:00,25.0,5.0,-100.00,NW,308,9.0,24.0,41,0.00,,,0.00,0.000000,,2013-03-15 02:12:00,
2013-03-14 22:22:00,25.0,5.0,-100.00,NW,308,9.0,24.0,41,0.00,,,0.00,0.000000,,2013-03-15 02:22:00,
2013-03-14 22:52:00,22.0,3.0,-100.00,NW,304,10.0,28.0,43,0.00,,,0.00,0.000000,,2013-03-15 02:52:00,
2013-03-14 23:02:00,22.0,3.0,-100.00,NW,304,10.0,28.0,43,0.00,,,0.00,0.000000,,2013-03-15 03:02:00,
2013-03-14 23:13:00,22.0,3.0,-100.00,NW,304,10.0,28.0,43,0.00,,,0.00,0.000000,,2013-03-15 03:13:00,
2013-03-14 23:22:00,22.0,3.0,-100.00,NW,304,10.0,28.0,43,0.00,,,0.00,0.000000,,2013-03-15 03:22:00,
2013-03-14 23:53:00,21.0,1.0,-100.00,NW,321,7.0,27.0,41,0.00,,,0.00,0.000000,,2013-03-15 03:53:00,